Back to catalog

SL-12 DEB

AliveLEO
NORAD 18767·DEBRIS·🇷🇺 Russia

Launched May 30, 1985 from Baikonur Cosmodrome

Loading…

Next Passes (next 24 hours)

TLE

FreshSource: Space-Track

Epoch: Sep 14, 2026, 07:02 UTC

1 18767U 85042K   26257.29307241  .00001113  00000-0  67519-3 0  9995
2 18767  66.5850  10.7256 0139827 188.3218 171.5548 14.05266015963260

Track SL-12 DEB in real time with AllMySat

Download on the App Store